星链-3902 (STARLINK-3902 )

导读

STARLINK-3902是美国SpaceX公司星链星座中的一颗低轨互联网卫星,于2022年5月6日发射,属于第一代星链V1.5批次卫星。它运行在近地轨道,配备相控阵天线和氪离子推进系统,具备轨道维持与自主避碰能力,支持激光星间通信,为全球用户提供低延迟、高速宽带互联网接入服务,尤其助力偏远地区连接网络,目前已在轨正常运行近4年,设计寿命约5年。

Basic Information
目录编号:
52487
目录名称:
STARLINK-3902
国际标识:
2022-049AN
轨道中心:
EARTH
卫星名称:
星链-3902
卫星全名:
星链-3902 (STARLINK-3902 )
卫星状态:
在轨 (已飞行1503 天)
发射日期:
2022-05-06 UTC
国别 :
美国 (US)
星等 :
--
Orbit Information
数据来源 国际轨道数据 AOE轨道数据
星历时间 2026-06-17T11:32:23+0800
11小时前
查看轨道信息
2026-06-16T08:00:00+0800
1天前
查看轨道信息
半长轴 6917.893km 6917.9km
偏心率 0.0001097 0.0001147
轨道倾角 53.161° 53.158°
近地点辐角 69.373° 55.181°
升交点赤经 322.646° 327.803°
平近点角 290.738° 188.584°
近地点 538.997km 538.969km
远地点 540.515km 540.557km
周期 95.438分钟 95.438分钟
每日圈数 15.088362 15.088337
Detailed Information
固有亮度:
5
最大亮度:
2.5
卫星平台:
Starlink v1.5
覆盖范围:
全球
运营商:
太空探索技术公司
运营商所在国:
美国
制造商(研发单位):
太空探索技术公司
制造商所在国:
美国
使用方式:
暂无
Satellite Introduction
星链(Starlink)计划是由太空探索技术公司(SpaceX)提出的一个巨型低轨卫星互联网星座项目,计划在2019年至2024年间在太空搭建由约1.2万颗卫星组成的“星链”网络,其中1584颗将部署在地球上空550千米处的近地轨道,并从2020年开始工作。该卫星仍在工作。
2D Orbit Map
3D Orbit Map
Orbit Altitude Analysis Chart
Orbit Inclination Analysis Chart
Orbit Comprehensive Analysis Chart
View Comprehensive Chart